Year,Month,Day,Hour,Minute,Value (Times are PST for temperature in C)
2018,04,23,00,00,4.60
2018,04,23,00,01,4.60
2018,04,23,00,02,4.60
2018,04,23,00,03,4.60
2018,04,23,00,04,4.60
2018,04,23,00,05,4.60
2018,04,23,00,06,4.50
2018,04,23,00,07,4.50
2018,04,23,00,08,4.50
2018,04,23,00,09,4.50
2018,04,23,00,10,4.40
2018,04,23,00,11,4.40
2018,04,23,00,12,4.40
2018,04,23,00,13,4.30
2018,04,23,00,14,4.30
2018,04,23,00,15,4.30
2018,04,23,00,16,4.30
2018,04,23,00,17,4.30
2018,04,23,00,18,4.30
2018,04,23,00,19,4.30
2018,04,23,00,20,4.30
2018,04,23,00,21,4.40
2018,04,23,00,22,4.40
2018,04,23,00,23,4.40
2018,04,23,00,24,4.40
2018,04,23,00,25,4.40
2018,04,23,00,26,4.50
2018,04,23,00,27,4.50
2018,04,23,00,28,4.50
2018,04,23,00,29,4.60
2018,04,23,00,30,4.60
2018,04,23,00,31,4.60
2018,04,23,00,32,4.60
2018,04,23,00,33,4.60
2018,04,23,00,34,4.60
2018,04,23,00,35,4.60
2018,04,23,00,36,4.60
2018,04,23,00,37,4.60
2018,04,23,00,38,4.60
2018,04,23,00,39,4.60
2018,04,23,00,40,4.60
2018,04,23,00,41,4.50
2018,04,23,00,42,4.50
2018,04,23,00,43,4.40
2018,04,23,00,44,4.40
2018,04,23,00,45,4.40
2018,04,23,00,46,4.40
2018,04,23,00,47,4.40
2018,04,23,00,48,4.30
2018,04,23,00,49,4.30
2018,04,23,00,50,4.30
2018,04,23,00,51,4.30
2018,04,23,00,52,4.30
2018,04,23,00,53,4.30
2018,04,23,00,54,4.30
2018,04,23,00,55,4.40
2018,04,23,00,56,4.40
2018,04,23,00,57,4.30
2018,04,23,00,58,4.30
2018,04,23,00,59,4.30
2018,04,23,01,00,4.30
2018,04,23,01,01,4.30
2018,04,23,01,02,4.30
2018,04,23,01,03,4.20
2018,04,23,01,04,4.20
2018,04,23,01,05,4.20
2018,04,23,01,06,4.20
2018,04,23,01,07,4.20
2018,04,23,01,08,4.10
2018,04,23,01,09,4.10
2018,04,23,01,10,4.10
2018,04,23,01,11,4.10
2018,04,23,01,12,4.10
2018,04,23,01,13,4.10
2018,04,23,01,14,4.10
2018,04,23,01,15,4.10
2018,04,23,01,16,4.20
2018,04,23,01,17,4.20
2018,04,23,01,18,4.30
2018,04,23,01,19,4.30
2018,04,23,01,20,4.40
2018,04,23,01,21,4.40
2018,04,23,01,22,4.40
2018,04,23,01,23,4.40
2018,04,23,01,24,4.40
2018,04,23,01,25,4.40
2018,04,23,01,26,4.40
2018,04,23,01,27,4.40
2018,04,23,01,28,4.30
2018,04,23,01,29,4.30
2018,04,23,01,30,4.30
2018,04,23,01,31,4.30
2018,04,23,01,32,4.30
2018,04,23,01,33,4.20
2018,04,23,01,34,4.20
2018,04,23,01,35,4.30
2018,04,23,01,36,4.30
2018,04,23,01,37,4.30
2018,04,23,01,38,4.40
2018,04,23,01,39,4.50
2018,04,23,01,40,4.60
2018,04,23,01,41,4.60
2018,04,23,01,42,4.70
2018,04,23,01,43,4.70
2018,04,23,01,44,4.70
2018,04,23,01,45,4.70
2018,04,23,01,46,4.70
2018,04,23,01,47,4.60
2018,04,23,01,48,4.60
2018,04,23,01,49,4.60
2018,04,23,01,50,4.60
2018,04,23,01,51,4.50
2018,04,23,01,52,4.50
2018,04,23,01,53,4.50
2018,04,23,01,54,4.60
2018,04,23,01,55,4.60
2018,04,23,01,56,4.60
2018,04,23,01,57,4.70
2018,04,23,01,58,4.70
2018,04,23,01,59,4.70
2018,04,23,02,00,4.70
2018,04,23,02,01,4.80
2018,04,23,02,02,4.80
2018,04,23,02,03,4.80
2018,04,23,02,04,4.80
2018,04,23,02,05,4.70
2018,04,23,02,06,4.70
2018,04,23,02,07,4.70
2018,04,23,02,08,4.60
2018,04,23,02,09,4.50
2018,04,23,02,10,4.50
2018,04,23,02,11,4.40
2018,04,23,02,12,4.40
2018,04,23,02,13,4.30
2018,04,23,02,14,4.30
2018,04,23,02,15,4.20
2018,04,23,02,16,4.20
2018,04,23,02,17,4.10
2018,04,23,02,18,4.10
2018,04,23,02,19,4.10
2018,04,23,02,20,4.10
2018,04,23,02,21,4.10
2018,04,23,02,22,4.10
2018,04,23,02,23,4.10
2018,04,23,02,24,4.10
2018,04,23,02,25,4.10
2018,04,23,02,26,4.10
2018,04,23,02,27,4.00
2018,04,23,02,28,4.00
2018,04,23,02,29,4.00
2018,04,23,02,30,3.90
2018,04,23,02,31,3.90
2018,04,23,02,32,3.80
2018,04,23,02,33,3.80
2018,04,23,02,34,3.80
2018,04,23,02,35,3.70
2018,04,23,02,36,3.70
2018,04,23,02,37,3.70
2018,04,23,02,38,3.70
2018,04,23,02,39,3.60
2018,04,23,02,40,3.60
2018,04,23,02,41,3.60
2018,04,23,02,42,3.50
2018,04,23,02,43,3.50
2018,04,23,02,44,3.50
2018,04,23,02,45,3.50
2018,04,23,02,46,3.40
2018,04,23,02,47,3.40
2018,04,23,02,48,3.40
2018,04,23,02,49,3.30
2018,04,23,02,50,3.30
2018,04,23,02,51,3.30
2018,04,23,02,52,3.20
2018,04,23,02,53,3.20
2018,04,23,02,54,3.20
2018,04,23,02,55,3.10
2018,04,23,02,56,3.10
2018,04,23,02,57,3.10
2018,04,23,02,58,3.10
2018,04,23,02,59,3.10
2018,04,23,03,00,3.10
2018,04,23,03,01,3.10
2018,04,23,03,02,3.10
2018,04,23,03,03,3.00
2018,04,23,03,04,3.00
2018,04,23,03,05,3.00
2018,04,23,03,06,3.00
2018,04,23,03,07,3.00
2018,04,23,03,08,3.00
2018,04,23,03,09,3.00
2018,04,23,03,10,2.90
2018,04,23,03,11,2.90
2018,04,23,03,12,2.90
2018,04,23,03,13,2.90
2018,04,23,03,14,2.80
2018,04,23,03,15,2.80
2018,04,23,03,16,2.80
2018,04,23,03,17,2.80
2018,04,23,03,18,2.70
2018,04,23,03,19,2.70
2018,04,23,03,20,2.70
2018,04,23,03,21,2.70
2018,04,23,03,22,2.60
2018,04,23,03,23,2.60
2018,04,23,03,24,2.60
2018,04,23,03,25,2.60
2018,04,23,03,26,2.50
2018,04,23,03,27,2.60
2018,04,23,03,28,2.60
2018,04,23,03,29,2.60
2018,04,23,03,30,2.60
2018,04,23,03,31,2.70
2018,04,23,03,32,2.70
2018,04,23,03,33,2.70
2018,04,23,03,34,2.70
2018,04,23,03,35,2.70
2018,04,23,03,36,2.70
2018,04,23,03,37,2.70
2018,04,23,03,38,2.70
2018,04,23,03,39,2.60
2018,04,23,03,40,2.60
2018,04,23,03,41,2.60
2018,04,23,03,42,2.60
2018,04,23,03,43,2.50
2018,04,23,03,44,2.50
2018,04,23,03,45,2.40
2018,04,23,03,46,2.40
2018,04,23,03,47,2.40
2018,04,23,03,48,2.30
2018,04,23,03,49,2.30
2018,04,23,03,50,2.30
2018,04,23,03,51,2.20
2018,04,23,03,52,2.20
2018,04,23,03,53,2.20
2018,04,23,03,54,2.10
2018,04,23,03,55,2.10
2018,04,23,03,56,2.10
2018,04,23,03,57,2.00
2018,04,23,03,58,2.00
2018,04,23,03,59,1.90
2018,04,23,04,00,1.90
2018,04,23,04,01,1.80
2018,04,23,04,02,1.80
2018,04,23,04,03,1.80
2018,04,23,04,04,1.70
2018,04,23,04,05,1.70
2018,04,23,04,06,1.60
2018,04,23,04,07,1.60
2018,04,23,04,08,1.50
2018,04,23,04,09,1.50
2018,04,23,04,10,1.40
2018,04,23,04,11,1.40
2018,04,23,04,12,1.40
2018,04,23,04,13,1.30
2018,04,23,04,14,1.30
2018,04,23,04,15,1.30
2018,04,23,04,16,1.30
2018,04,23,04,17,1.30
2018,04,23,04,18,1.30
2018,04,23,04,19,1.40
2018,04,23,04,20,1.40
2018,04,23,04,21,1.40
2018,04,23,04,22,1.40
2018,04,23,04,23,1.50
2018,04,23,04,24,1.50
2018,04,23,04,25,1.50
2018,04,23,04,26,1.50
2018,04,23,04,27,1.50
2018,04,23,04,28,1.50
2018,04,23,04,29,1.50
2018,04,23,04,30,1.40
2018,04,23,04,31,1.40
2018,04,23,04,32,1.40
2018,04,23,04,33,1.30
2018,04,23,04,34,1.30
2018,04,23,04,35,1.30
2018,04,23,04,36,1.30
2018,04,23,04,37,1.30
2018,04,23,04,38,1.30
2018,04,23,04,39,1.30
2018,04,23,04,40,1.30
2018,04,23,04,41,1.30
2018,04,23,04,42,1.30
2018,04,23,04,43,1.30
2018,04,23,04,44,1.30
2018,04,23,04,45,1.30
2018,04,23,04,46,1.20
2018,04,23,04,47,1.20
2018,04,23,04,48,1.20
2018,04,23,04,49,1.20
2018,04,23,04,50,1.10
2018,04,23,04,51,1.10
2018,04,23,04,52,1.10
2018,04,23,04,53,1.10
2018,04,23,04,54,1.10
2018,04,23,04,55,1.10
2018,04,23,04,56,1.10
2018,04,23,04,57,1.10
2018,04,23,04,58,1.10
2018,04,23,04,59,1.10
2018,04,23,05,00,1.00
2018,04,23,05,01,1.00
2018,04,23,05,02,0.90
2018,04,23,05,03,0.90
2018,04,23,05,04,0.90
2018,04,23,05,05,0.80
2018,04,23,05,06,0.80
2018,04,23,05,07,0.80
2018,04,23,05,08,0.80
2018,04,23,05,09,0.70
2018,04,23,05,10,0.70
2018,04,23,05,11,0.70
2018,04,23,05,12,0.70
2018,04,23,05,13,0.60
2018,04,23,05,14,0.60
2018,04,23,05,15,0.60
2018,04,23,05,16,0.60
2018,04,23,05,17,0.60
2018,04,23,05,18,0.60
2018,04,23,05,19,0.60
2018,04,23,05,20,0.60
2018,04,23,05,21,0.50
2018,04,23,05,22,0.60
2018,04,23,05,23,0.60
2018,04,23,05,24,0.60
2018,04,23,05,25,0.70
2018,04,23,05,26,0.70
2018,04,23,05,27,0.70
2018,04,23,05,28,0.80
2018,04,23,05,29,0.80
2018,04,23,05,30,0.80
2018,04,23,05,31,0.80
2018,04,23,05,32,0.80
2018,04,23,05,33,0.80
2018,04,23,05,34,0.80
2018,04,23,05,35,0.80
2018,04,23,05,36,0.70
2018,04,23,05,37,0.70
2018,04,23,05,38,0.70
2018,04,23,05,39,0.70
2018,04,23,05,40,0.70
2018,04,23,05,41,0.70
2018,04,23,05,42,0.60
2018,04,23,05,43,0.70
2018,04,23,05,44,0.70
2018,04,23,05,45,0.70
2018,04,23,05,46,0.80
2018,04,23,05,47,0.80
2018,04,23,05,48,0.90
2018,04,23,05,49,0.90
2018,04,23,05,50,1.00
2018,04,23,05,51,1.00
2018,04,23,05,52,1.00
2018,04,23,05,53,1.00
2018,04,23,05,54,1.00
2018,04,23,05,55,0.90
2018,04,23,05,56,0.90
2018,04,23,05,57,0.90
2018,04,23,05,58,0.80
2018,04,23,05,59,0.80
2018,04,23,06,00,0.80
2018,04,23,06,01,0.70
2018,04,23,06,02,0.70
2018,04,23,06,03,0.60
2018,04,23,06,04,0.60
2018,04,23,06,05,0.60
2018,04,23,06,06,0.60
2018,04,23,06,07,0.50
2018,04,23,06,08,0.50
2018,04,23,06,09,0.50
2018,04,23,06,10,0.50
2018,04,23,06,11,0.40
2018,04,23,06,12,0.40
2018,04,23,06,13,0.40
2018,04,23,06,14,0.40
2018,04,23,06,15,0.40
2018,04,23,06,16,0.40
2018,04,23,06,17,0.40
2018,04,23,06,18,0.40
2018,04,23,06,19,0.40
2018,04,23,06,20,0.40
2018,04,23,06,21,0.40
2018,04,23,06,22,0.40
2018,04,23,06,23,0.40
2018,04,23,06,24,0.40
2018,04,23,06,25,0.40
2018,04,23,06,26,0.40
2018,04,23,06,27,0.40
2018,04,23,06,28,0.40
2018,04,23,06,29,0.40
2018,04,23,06,30,0.40
2018,04,23,06,31,0.40
2018,04,23,06,32,0.40
2018,04,23,06,33,0.50
2018,04,23,06,34,0.50
2018,04,23,06,35,0.50
2018,04,23,06,36,0.50
2018,04,23,06,37,0.50
2018,04,23,06,38,0.50
2018,04,23,06,39,0.50
2018,04,23,06,40,0.50
2018,04,23,06,41,0.40
2018,04,23,06,42,0.40
2018,04,23,06,43,0.40
2018,04,23,06,44,0.40
2018,04,23,06,45,0.40
2018,04,23,06,46,0.40
2018,04,23,06,47,0.40
2018,04,23,06,48,0.40
2018,04,23,06,49,0.30
2018,04,23,06,50,0.30
2018,04,23,06,51,0.30
2018,04,23,06,52,0.30
2018,04,23,06,53,0.30
2018,04,23,06,54,0.30
2018,04,23,06,55,0.30
2018,04,23,06,56,0.30
2018,04,23,06,57,0.40
2018,04,23,06,58,0.40
2018,04,23,06,59,0.40
2018,04,23,07,00,0.40
2018,04,23,07,01,0.40
2018,04,23,07,02,0.50
2018,04,23,07,03,0.50
2018,04,23,07,04,0.50
2018,04,23,07,05,0.60
2018,04,23,07,06,0.60
2018,04,23,07,07,0.70
2018,04,23,07,08,0.70
2018,04,23,07,09,0.80
2018,04,23,07,10,0.90
2018,04,23,07,11,1.00
2018,04,23,07,12,1.10
2018,04,23,07,13,1.30
2018,04,23,07,14,1.30
2018,04,23,07,15,1.50
2018,04,23,07,16,1.70
2018,04,23,07,17,1.80
2018,04,23,07,18,1.90
2018,04,23,07,19,2.00
2018,04,23,07,20,2.10
2018,04,23,07,21,2.20
2018,04,23,07,22,2.30
2018,04,23,07,23,2.50
2018,04,23,07,24,2.60
2018,04,23,07,25,2.70
2018,04,23,07,26,2.90
2018,04,23,07,27,3.00
2018,04,23,07,28,3.20
2018,04,23,07,29,3.40
2018,04,23,07,30,3.60
2018,04,23,07,31,3.80
2018,04,23,07,32,4.00
2018,04,23,07,33,4.20
2018,04,23,07,34,4.40
2018,04,23,07,35,4.60
2018,04,23,07,36,4.80
2018,04,23,07,37,5.00
2018,04,23,07,38,5.20
2018,04,23,07,39,5.40
2018,04,23,07,40,5.60
2018,04,23,07,41,5.80
2018,04,23,07,42,6.00
2018,04,23,07,43,6.10
2018,04,23,07,44,6.30
2018,04,23,07,45,6.50
2018,04,23,07,46,6.60
2018,04,23,07,47,6.80
2018,04,23,07,48,6.90
2018,04,23,07,49,7.00
2018,04,23,07,50,7.10
2018,04,23,07,51,7.20
2018,04,23,07,52,7.20
2018,04,23,07,53,7.30
2018,04,23,07,54,7.40
2018,04,23,07,55,7.50
2018,04,23,07,56,7.50
2018,04,23,07,57,7.60
2018,04,23,07,58,7.70
2018,04,23,07,59,7.80
2018,04,23,08,00,7.80
2018,04,23,08,01,7.90
2018,04,23,08,02,7.90
2018,04,23,08,03,8.00
2018,04,23,08,04,8.10
2018,04,23,08,05,8.10
2018,04,23,08,06,8.10
2018,04,23,08,07,8.20
2018,04,23,08,08,8.20
2018,04,23,08,09,8.20
2018,04,23,08,10,8.30
2018,04,23,08,11,8.30
2018,04,23,08,12,8.30
2018,04,23,08,13,8.30
2018,04,23,08,14,8.30
2018,04,23,08,15,8.40
2018,04,23,08,16,8.40
2018,04,23,08,17,8.40
2018,04,23,08,18,8.40
2018,04,23,08,19,8.50
2018,04,23,08,20,8.50
2018,04,23,08,21,8.50
2018,04,23,08,22,8.60
2018,04,23,08,23,8.60
2018,04,23,08,24,8.60
2018,04,23,08,25,8.60
2018,04,23,08,26,8.70
2018,04,23,08,27,8.70
2018,04,23,08,28,8.70
2018,04,23,08,29,8.80
2018,04,23,08,30,8.80
2018,04,23,08,31,8.80
2018,04,23,08,32,8.80
2018,04,23,08,33,8.80
2018,04,23,08,34,8.80
2018,04,23,08,35,8.80
2018,04,23,08,36,8.90
2018,04,23,08,37,8.90
2018,04,23,08,38,8.90
2018,04,23,08,39,9.00
2018,04,23,08,40,9.00
2018,04,23,08,41,9.00
2018,04,23,08,42,9.10
2018,04,23,08,43,9.10
2018,04,23,08,44,9.10
2018,04,23,08,45,9.20
2018,04,23,08,46,9.20
2018,04,23,08,47,9.20
2018,04,23,08,48,9.30
2018,04,23,08,49,9.30
2018,04,23,08,50,9.30
2018,04,23,08,51,9.30
2018,04,23,08,52,9.30
2018,04,23,08,53,9.30
2018,04,23,08,54,9.30
2018,04,23,08,55,9.30
2018,04,23,08,56,9.40
2018,04,23,08,57,9.30
2018,04,23,08,58,9.30
2018,04,23,08,59,9.30
2018,04,23,09,00,9.40
2018,04,23,09,01,9.40
2018,04,23,09,02,9.40
2018,04,23,09,03,9.50
2018,04,23,09,04,9.50
2018,04,23,09,05,9.50
2018,04,23,09,06,9.50
2018,04,23,09,07,9.50
2018,04,23,09,08,9.50
2018,04,23,09,09,9.50
2018,04,23,09,10,9.60
2018,04,23,09,11,9.60
2018,04,23,09,12,9.60
2018,04,23,09,13,9.60
2018,04,23,09,14,9.60
2018,04,23,09,15,9.60
2018,04,23,09,16,9.60
2018,04,23,09,17,9.60
2018,04,23,09,18,9.60
2018,04,23,09,19,9.70
2018,04,23,09,20,9.80
2018,04,23,09,21,9.80
2018,04,23,09,22,9.90
2018,04,23,09,23,9.90
2018,04,23,09,24,9.90
2018,04,23,09,25,10.00
2018,04,23,09,26,10.00
2018,04,23,09,27,10.00
2018,04,23,09,28,10.00
2018,04,23,09,29,10.00
2018,04,23,09,30,10.00
2018,04,23,09,31,10.10
2018,04,23,09,32,10.10
2018,04,23,09,33,10.10
2018,04,23,09,34,10.10
2018,04,23,09,35,10.20
2018,04,23,09,36,10.30
2018,04,23,09,37,10.30
2018,04,23,09,38,10.30
2018,04,23,09,39,10.40
2018,04,23,09,40,10.40
2018,04,23,09,41,10.40
2018,04,23,09,42,10.40
2018,04,23,09,43,10.40
2018,04,23,09,44,10.50
2018,04,23,09,45,10.50
2018,04,23,09,46,10.60
2018,04,23,09,47,10.60
2018,04,23,09,48,10.60
2018,04,23,09,49,10.60
2018,04,23,09,50,10.60
2018,04,23,09,51,10.60
2018,04,23,09,52,10.60
2018,04,23,09,53,10.50
2018,04,23,09,54,10.40
2018,04,23,09,55,10.40
2018,04,23,09,56,10.40
2018,04,23,09,57,10.30
2018,04,23,09,58,10.30
2018,04,23,09,59,10.30
2018,04,23,10,00,10.40
2018,04,23,10,01,10.40
2018,04,23,10,02,10.40
2018,04,23,10,03,10.40
2018,04,23,10,04,10.40
2018,04,23,10,05,10.40
2018,04,23,10,06,10.40
2018,04,23,10,07,10.40
2018,04,23,10,08,10.50
2018,04,23,10,09,10.50
2018,04,23,10,10,10.50
2018,04,23,10,11,10.50
2018,04,23,10,12,10.50
2018,04,23,10,13,10.60
2018,04,23,10,14,10.50
2018,04,23,10,15,10.50
2018,04,23,10,16,10.50
2018,04,23,10,17,10.50
2018,04,23,10,18,10.50
2018,04,23,10,19,10.50
2018,04,23,10,20,10.40
2018,04,23,10,21,10.40
2018,04,23,10,22,10.40
2018,04,23,10,23,10.30
2018,04,23,10,24,10.30
2018,04,23,10,25,10.40
2018,04,23,10,26,10.40
2018,04,23,10,27,10.40
2018,04,23,10,28,10.40
2018,04,23,10,29,10.40
2018,04,23,10,30,10.50
2018,04,23,10,31,10.60
2018,04,23,10,32,10.70
2018,04,23,10,33,10.80
2018,04,23,10,34,10.80
2018,04,23,10,35,10.90
2018,04,23,10,36,10.90
2018,04,23,10,37,10.90
2018,04,23,10,38,10.90
2018,04,23,10,39,10.90
2018,04,23,10,40,10.90
2018,04,23,10,41,10.90
2018,04,23,10,42,10.90
2018,04,23,10,43,10.90
2018,04,23,10,44,10.90
2018,04,23,10,45,11.00
2018,04,23,10,46,11.00
2018,04,23,10,47,11.10
2018,04,23,10,48,11.20
2018,04,23,10,49,11.30
2018,04,23,10,50,11.30
2018,04,23,10,51,11.40
2018,04,23,10,52,11.50
2018,04,23,10,53,11.60
2018,04,23,10,54,11.60
2018,04,23,10,55,11.70
2018,04,23,10,56,11.70
2018,04,23,10,57,11.60
2018,04,23,10,58,11.60
2018,04,23,10,59,11.60
2018,04,23,11,00,11.50
2018,04,23,11,01,11.40
2018,04,23,11,02,11.30
2018,04,23,11,03,11.20
2018,04,23,11,04,11.10
2018,04,23,11,05,11.20
2018,04,23,11,06,11.20
2018,04,23,11,07,11.20
2018,04,23,11,08,11.20
2018,04,23,11,09,11.20
2018,04,23,11,10,11.10
2018,04,23,11,11,11.20
2018,04,23,11,12,11.20
2018,04,23,11,13,11.30
2018,04,23,11,14,11.40
2018,04,23,11,15,11.50
2018,04,23,11,16,11.60
2018,04,23,11,17,11.60
2018,04,23,11,18,11.70
2018,04,23,11,19,11.70
2018,04,23,11,20,11.70
2018,04,23,11,21,11.80
2018,04,23,11,22,11.80
2018,04,23,11,23,11.90
2018,04,23,11,24,12.00
2018,04,23,11,25,12.10
2018,04,23,11,26,12.10
2018,04,23,11,27,12.20
2018,04,23,11,28,12.30
2018,04,23,11,29,12.30
2018,04,23,11,30,12.30
2018,04,23,11,31,12.30
2018,04,23,11,32,12.30
2018,04,23,11,33,12.30
2018,04,23,11,34,12.20
2018,04,23,11,35,12.20
2018,04,23,11,36,12.20
2018,04,23,11,37,12.30
2018,04,23,11,38,12.30
2018,04,23,11,39,12.40
2018,04,23,11,40,12.40
2018,04,23,11,41,12.30
2018,04,23,11,42,12.30
2018,04,23,11,43,12.20
2018,04,23,11,44,12.20
2018,04,23,11,45,12.20
2018,04,23,11,46,12.20
2018,04,23,11,47,12.20
2018,04,23,11,48,12.10
2018,04,23,11,49,12.10
2018,04,23,11,50,12.10
2018,04,23,11,51,12.10
2018,04,23,11,52,12.10
2018,04,23,11,53,12.20
2018,04,23,11,54,12.20
2018,04,23,11,55,12.20
2018,04,23,11,56,12.20
2018,04,23,11,57,12.30
2018,04,23,11,58,12.30
2018,04,23,11,59,12.30
2018,04,23,12,00,12.30
2018,04,23,12,01,12.30
2018,04,23,12,02,12.30
2018,04,23,12,03,12.40
2018,04,23,12,04,12.40
2018,04,23,12,05,12.40
2018,04,23,12,06,12.40
2018,04,23,12,07,12.40
2018,04,23,12,08,12.40
2018,04,23,12,09,12.40
2018,04,23,12,10,12.40
2018,04,23,12,11,12.40
2018,04,23,12,12,12.40
2018,04,23,12,13,12.30
2018,04,23,12,14,12.40
2018,04,23,12,15,12.50
2018,04,23,12,16,12.60
2018,04,23,12,17,12.70
2018,04,23,12,18,12.70
2018,04,23,12,19,12.70
2018,04,23,12,20,12.70
2018,04,23,12,21,12.70
2018,04,23,12,22,12.60
2018,04,23,12,23,12.60
2018,04,23,12,24,12.70
2018,04,23,12,25,12.70
2018,04,23,12,26,12.70
2018,04,23,12,27,12.70
2018,04,23,12,28,12.70
2018,04,23,12,29,12.60
2018,04,23,12,30,12.50
2018,04,23,12,31,12.40
2018,04,23,12,32,12.40
2018,04,23,12,33,12.50
2018,04,23,12,34,12.50
2018,04,23,12,35,12.60
2018,04,23,12,36,12.60
2018,04,23,12,37,12.60
2018,04,23,12,38,12.60
2018,04,23,12,39,12.70
2018,04,23,12,40,12.70
2018,04,23,12,41,12.70
2018,04,23,12,42,12.70
2018,04,23,12,43,12.70
2018,04,23,12,44,12.70
2018,04,23,12,45,12.70
2018,04,23,12,46,12.60
2018,04,23,12,47,12.60
2018,04,23,12,48,12.60
2018,04,23,12,49,12.70
2018,04,23,12,50,12.70
2018,04,23,12,51,12.70
2018,04,23,12,52,12.80
2018,04,23,12,53,12.80
2018,04,23,12,54,12.80
2018,04,23,12,55,12.80
2018,04,23,12,56,12.90
2018,04,23,12,57,12.90
2018,04,23,12,58,13.00
2018,04,23,12,59,13.00
2018,04,23,13,00,13.00
2018,04,23,13,01,13.10
2018,04,23,13,02,13.20
2018,04,23,13,03,13.20
2018,04,23,13,04,13.20
2018,04,23,13,05,13.30
2018,04,23,13,06,13.50
2018,04,23,13,07,13.60
2018,04,23,13,08,13.70
2018,04,23,13,09,13.70
2018,04,23,13,10,13.60
2018,04,23,13,11,13.50
2018,04,23,13,12,13.50
2018,04,23,13,13,13.50
2018,04,23,13,14,13.50
2018,04,23,13,15,13.50
2018,04,23,13,16,13.50
2018,04,23,13,17,13.50
2018,04,23,13,18,13.50
2018,04,23,13,19,13.50
2018,04,23,13,20,13.40
2018,04,23,13,21,13.50
2018,04,23,13,22,13.60
2018,04,23,13,23,13.60
2018,04,23,13,24,13.70
2018,04,23,13,25,13.70
2018,04,23,13,26,13.80
2018,04,23,13,27,14.00
2018,04,23,13,28,14.10
2018,04,23,13,29,14.20
2018,04,23,13,30,14.20
2018,04,23,13,31,14.30
2018,04,23,13,32,14.30
2018,04,23,13,33,14.30
2018,04,23,13,34,14.30
2018,04,23,13,35,14.30
2018,04,23,13,36,14.30
2018,04,23,13,37,14.40
2018,04,23,13,38,14.40
2018,04,23,13,39,14.40
2018,04,23,13,40,14.40
2018,04,23,13,41,14.40
2018,04,23,13,42,14.40
2018,04,23,13,43,14.50
2018,04,23,13,44,14.60
2018,04,23,13,45,14.60
2018,04,23,13,46,14.70
2018,04,23,13,47,14.80
2018,04,23,13,48,14.80
2018,04,23,13,49,14.90
2018,04,23,13,50,14.90
2018,04,23,13,51,14.90
2018,04,23,13,52,15.00
2018,04,23,13,53,15.00
2018,04,23,13,54,15.00
2018,04,23,13,55,15.00
2018,04,23,13,56,15.00
2018,04,23,13,57,15.00
2018,04,23,13,58,15.00
2018,04,23,13,59,15.00
2018,04,23,14,00,15.00
2018,04,23,14,01,15.10
2018,04,23,14,02,15.20
2018,04,23,14,03,15.40
2018,04,23,14,04,15.40
2018,04,23,14,05,15.30
2018,04,23,14,06,15.30
2018,04,23,14,07,15.30
2018,04,23,14,08,15.20
2018,04,23,14,09,15.20
2018,04,23,14,10,15.10
2018,04,23,14,11,15.00
2018,04,23,14,12,15.00
2018,04,23,14,13,15.00
2018,04,23,14,14,15.00
2018,04,23,14,15,15.00
2018,04,23,14,16,15.00
2018,04,23,14,17,15.00
2018,04,23,14,18,15.00
2018,04,23,14,19,15.00
2018,04,23,14,20,15.00
2018,04,23,14,21,15.00
2018,04,23,14,22,15.10
2018,04,23,14,23,15.30
2018,04,23,14,24,15.40
2018,04,23,14,25,15.40
2018,04,23,14,26,15.40
2018,04,23,14,27,15.40
2018,04,23,14,28,15.30
2018,04,23,14,29,15.30
2018,04,23,14,30,15.40
2018,04,23,14,31,15.50
2018,04,23,14,32,15.50
2018,04,23,14,33,15.60
2018,04,23,14,34,15.70
2018,04,23,14,35,15.80
2018,04,23,14,36,15.90
2018,04,23,14,37,16.00
2018,04,23,14,38,16.00
2018,04,23,14,39,15.90
2018,04,23,14,40,15.80
2018,04,23,14,41,15.80
2018,04,23,14,42,15.70
2018,04,23,14,43,15.70
2018,04,23,14,44,15.60
2018,04,23,14,45,15.60
2018,04,23,14,46,15.60
2018,04,23,14,47,15.60
2018,04,23,14,48,15.70
2018,04,23,14,49,15.70
2018,04,23,14,50,15.70
2018,04,23,14,51,15.70
2018,04,23,14,52,15.70
2018,04,23,14,53,15.70
2018,04,23,14,54,15.70
2018,04,23,14,55,15.70
2018,04,23,14,56,15.80
2018,04,23,14,57,15.80
2018,04,23,14,58,15.80
2018,04,23,14,59,15.80
2018,04,23,15,00,15.70
2018,04,23,15,01,15.70
2018,04,23,15,02,15.70
2018,04,23,15,03,15.70
2018,04,23,15,04,15.70
2018,04,23,15,05,15.60
2018,04,23,15,06,15.60
2018,04,23,15,07,15.50
2018,04,23,15,08,15.40
2018,04,23,15,09,15.40
2018,04,23,15,10,15.40
2018,04,23,15,11,15.50
2018,04,23,15,12,15.50
2018,04,23,15,13,15.50
2018,04,23,15,14,15.50
2018,04,23,15,15,15.50
2018,04,23,15,16,15.50
2018,04,23,15,17,15.40
2018,04,23,15,18,15.40
2018,04,23,15,19,15.30
2018,04,23,15,20,15.30
2018,04,23,15,21,15.30
2018,04,23,15,22,15.30
2018,04,23,15,23,15.30
2018,04,23,15,24,15.40
2018,04,23,15,25,15.50
2018,04,23,15,26,15.50
2018,04,23,15,27,15.50
2018,04,23,15,28,15.50
2018,04,23,15,29,15.50
2018,04,23,15,30,15.60
2018,04,23,15,31,15.60
2018,04,23,15,32,15.60
2018,04,23,15,33,15.50
2018,04,23,15,34,15.50
2018,04,23,15,35,15.50
2018,04,23,15,36,15.60
2018,04,23,15,37,15.70
2018,04,23,15,38,15.70
2018,04,23,15,39,15.70
2018,04,23,15,40,15.80
2018,04,23,15,41,15.90
2018,04,23,15,42,16.00
2018,04,23,15,43,16.00
2018,04,23,15,44,16.00
2018,04,23,15,45,15.90
2018,04,23,15,46,15.80
2018,04,23,15,47,15.80
2018,04,23,15,48,15.80
2018,04,23,15,49,15.80
2018,04,23,15,50,15.80
2018,04,23,15,51,15.80
2018,04,23,15,52,15.70
2018,04,23,15,53,15.70
2018,04,23,15,54,15.60
2018,04,23,15,55,15.60
2018,04,23,15,56,15.60
2018,04,23,15,57,15.70
2018,04,23,15,58,15.70
2018,04,23,15,59,15.70
2018,04,23,16,00,15.80
2018,04,23,16,01,15.80
2018,04,23,16,02,15.90
2018,04,23,16,03,15.90
2018,04,23,16,04,16.00
2018,04,23,16,05,16.00
2018,04,23,16,06,15.90
2018,04,23,16,07,15.90
2018,04,23,16,08,15.90
2018,04,23,16,09,16.00
2018,04,23,16,10,16.00
2018,04,23,16,11,16.00
2018,04,23,16,12,16.00
2018,04,23,16,13,16.00
2018,04,23,16,14,16.10
2018,04,23,16,15,16.10
2018,04,23,16,16,16.10
2018,04,23,16,17,16.10
2018,04,23,16,18,16.00
2018,04,23,16,19,16.00
2018,04,23,16,20,16.00
2018,04,23,16,21,16.10
2018,04,23,16,22,16.20
2018,04,23,16,23,16.30
2018,04,23,16,24,16.30
2018,04,23,16,25,16.40
2018,04,23,16,26,16.50
2018,04,23,16,27,16.50
2018,04,23,16,28,16.60
2018,04,23,16,29,16.60
2018,04,23,16,30,16.60
2018,04,23,16,31,16.60
2018,04,23,16,32,16.50
2018,04,23,16,33,16.50
2018,04,23,16,34,16.40
2018,04,23,16,35,16.40
2018,04,23,16,36,16.40
2018,04,23,16,37,16.40
2018,04,23,16,38,16.40
2018,04,23,16,39,16.40
2018,04,23,16,40,16.30
2018,04,23,16,41,16.30
2018,04,23,16,42,16.40
2018,04,23,16,43,16.40
2018,04,23,16,44,16.30
2018,04,23,16,45,16.20
2018,04,23,16,46,16.20
2018,04,23,16,47,16.20
2018,04,23,16,48,16.20
2018,04,23,16,49,16.20
2018,04,23,16,50,16.20
2018,04,23,16,51,16.20
2018,04,23,16,52,16.20
2018,04,23,16,53,16.20
2018,04,23,16,54,16.20
2018,04,23,16,55,16.20
2018,04,23,16,56,16.20
2018,04,23,16,57,16.10
2018,04,23,16,58,16.00
2018,04,23,16,59,16.00
2018,04,23,17,00,15.90
2018,04,23,17,01,15.90
2018,04,23,17,02,15.90
2018,04,23,17,03,15.90
2018,04,23,17,04,15.90
2018,04,23,17,05,15.90
2018,04,23,17,06,15.90
2018,04,23,17,07,15.90
2018,04,23,17,08,16.00
2018,04,23,17,09,16.00
2018,04,23,17,10,16.10
2018,04,23,17,11,16.10
2018,04,23,17,12,16.10
2018,04,23,17,13,16.20
2018,04,23,17,14,16.30
2018,04,23,17,15,16.30
2018,04,23,17,16,16.30
2018,04,23,17,17,16.30
2018,04,23,17,18,16.40
2018,04,23,17,19,16.30
2018,04,23,17,20,16.30
2018,04,23,17,21,16.30
2018,04,23,17,22,16.30
2018,04,23,17,23,16.30
2018,04,23,17,24,16.20
2018,04,23,17,25,16.20
2018,04,23,17,26,16.20
2018,04,23,17,27,16.20
2018,04,23,17,28,16.30
2018,04,23,17,29,16.30
2018,04,23,17,30,16.30
2018,04,23,17,31,16.30
2018,04,23,17,32,16.20
2018,04,23,17,33,16.10
2018,04,23,17,34,16.10
2018,04,23,17,35,16.00
2018,04,23,17,36,16.00
2018,04,23,17,37,15.90
2018,04,23,17,38,15.90
2018,04,23,17,39,15.90
2018,04,23,17,40,16.00
2018,04,23,17,41,16.00
2018,04,23,17,42,16.00
2018,04,23,17,43,16.00
2018,04,23,17,44,16.10